UAE86 LSZH-OMDB

Flight info

Callsign UAE86
Flight time N/A
Altitude 39000
Route DEGES Z2 XEBIX L607 ELMEM N606 GIRIS DCT TISAX DCT NAXAV DCT GIKEB DCT ROSKA DCT ROTAR DCT AIOSA DCT LATAN DCT SALUN N705 MMA P751 DASUM Y234 FYM M872 KULKI/N0487F410 M872 BDB Y214 RAPMA DCT KUVSO DCT KATIT DCT PEKEM M628 RIGIL G783 ELUDA/N0502F350 G783 ASPED Q308 KIPOK Q568 IMPED
Aircraft A359/H-SDE2E3GHIJ3J4J5LM1ORWXY/LB1D1

Departure

Time N/A
Airport Zürich Airport (LSZH)

Arrival

Time 2026-05-04 00:49
Airport Dubai International Airport (OMDB)
Time Latitude Longitude Altitude Speed Heading
2026-05-03 20:15 38.95044 19.38549 39131 ft 540 kts 137°
2026-05-03 20:15 38.89372 19.44874 39132 ft 540 kts 137°
2026-05-03 20:16 38.83703 19.51185 39136 ft 539 kts 137°
2026-05-03 20:16 38.78030 19.57486 39132 ft 540 kts 137°
2026-05-03 20:17 38.72349 19.63782 39132 ft 540 kts 137°
2026-05-03 20:17 38.66657 19.70076 39138 ft 541 kts 137°
2026-05-03 20:18 38.60960 19.76363 39136 ft 541 kts 137°
2026-05-03 20:18 38.55260 19.82639 39150 ft 541 kts 137°
2026-05-03 20:19 38.49592 19.88867 39133 ft 542 kts 137°
2026-05-03 20:19 38.43864 19.95147 39145 ft 543 kts 137°
2026-05-03 20:20 38.38123 20.01427 39144 ft 543 kts 137°
2026-05-03 20:20 38.32379 20.07696 39147 ft 544 kts 137°
2026-05-03 20:21 38.26631 20.13958 39166 ft 544 kts 137°
2026-05-03 20:21 38.20883 20.20205 39141 ft 544 kts 138°
2026-05-03 20:22 38.15125 20.26449 39140 ft 544 kts 138°
2026-05-03 20:22 38.09370 20.32677 39133 ft 544 kts 138°
2026-05-03 20:23 38.03611 20.38896 39137 ft 544 kts 138°
2026-05-03 20:23 37.97848 20.45106 39122 ft 544 kts 138°
2026-05-03 20:24 37.92073 20.51316 39154 ft 544 kts 138°
2026-05-03 20:24 37.86295 20.57515 39163 ft 544 kts 138°
2026-05-03 20:25 37.80514 20.63704 39156 ft 544 kts 138°
2026-05-03 20:25 37.74733 20.69881 39155 ft 544 kts 139°
2026-05-03 20:26 37.68948 20.76049 39152 ft 544 kts 139°
2026-05-03 20:26 37.63194 20.82171 39159 ft 545 kts 139°
2026-05-03 20:27 37.57396 20.88325 39155 ft 545 kts 139°
2026-05-03 20:27 37.51596 20.94471 39153 ft 544 kts 139°
2026-05-03 20:28 37.45798 21.00600 39149 ft 544 kts 139°
2026-05-03 20:28 37.39995 21.06722 39158 ft 545 kts 139°
2026-05-03 20:29 37.34167 21.12858 39153 ft 547 kts 139°
2026-05-03 20:29 37.28334 21.18986 39149 ft 547 kts 140°
2026-05-03 20:30 37.22497 21.25105 39151 ft 546 kts 140°
2026-05-03 20:30 37.16654 21.31219 39151 ft 547 kts 140°
2026-05-03 20:31 37.10805 21.37326 39151 ft 547 kts 140°
2026-05-03 20:31 37.04948 21.43427 39157 ft 548 kts 140°
2026-05-03 20:32 36.99085 21.49522 39153 ft 548 kts 140°
2026-05-03 20:32 36.93218 21.55609 39156 ft 548 kts 140°
2026-05-03 20:33 36.87395 21.61639 39156 ft 548 kts 140°
2026-05-03 20:33 36.81523 21.67706 39157 ft 548 kts 140°
2026-05-03 20:34 36.75644 21.73768 39153 ft 548 kts 140°
2026-05-03 20:34 36.69760 21.79823 39162 ft 548 kts 140°
2026-05-03 20:35 36.63874 21.85867 39150 ft 548 kts 141°
2026-05-03 20:35 36.57984 21.91904 39151 ft 548 kts 141°
2026-05-03 20:36 36.52094 21.97928 39151 ft 549 kts 141°
2026-05-03 20:36 36.46198 22.03946 39146 ft 549 kts 141°
2026-05-03 20:37 36.40291 22.09962 39148 ft 549 kts 141°
2026-05-03 20:37 36.34380 22.15971 39153 ft 549 kts 141°
2026-05-03 20:38 36.28475 22.21961 39151 ft 548 kts 141°
2026-05-03 20:38 36.22576 22.27934 39151 ft 548 kts 141°
2026-05-03 20:39 36.16669 22.33902 39151 ft 548 kts 141°
2026-05-03 20:39 36.10760 22.39860 39151 ft 548 kts 141°
2026-05-03 20:40 36.04851 22.45807 39168 ft 548 kts 141°
2026-05-03 20:40 35.98936 22.51748 39144 ft 548 kts 142°
2026-05-03 20:41 35.93016 22.57681 39152 ft 549 kts 142°
2026-05-03 20:41 35.87122 22.63577 39148 ft 549 kts 142°
2026-05-03 20:42 35.81186 22.69503 39149 ft 549 kts 142°
2026-05-03 20:42 35.75245 22.75423 39146 ft 549 kts 142°
2026-05-03 20:43 35.69307 22.81328 39144 ft 549 kts 143°
2026-05-03 20:43 35.63353 22.87236 39144 ft 550 kts 143°
2026-05-03 20:44 35.57401 22.93132 39143 ft 550 kts 143°
2026-05-03 20:44 35.51442 22.99023 39137 ft 550 kts 143°
2026-05-03 20:45 35.45485 23.04900 39137 ft 550 kts 143°
2026-05-03 20:45 35.39521 23.10772 39141 ft 550 kts 143°
2026-05-03 20:46 35.33552 23.16639 39128 ft 550 kts 144°
2026-05-03 20:46 35.27586 23.22490 39131 ft 549 kts 144°
2026-05-03 20:47 35.21620 23.28330 39125 ft 549 kts 144°
2026-05-03 20:47 35.15644 23.34169 39135 ft 549 kts 144°
2026-05-03 20:48 35.09670 23.39994 39124 ft 551 kts 144°
2026-05-03 20:48 35.03665 23.45838 39130 ft 552 kts 144°
2026-05-03 20:49 34.97658 23.51673 39113 ft 552 kts 144°
2026-05-03 20:49 34.91644 23.57504 39114 ft 552 kts 144°
2026-05-03 20:50 34.85623 23.63331 39113 ft 552 kts 144°
2026-05-03 20:50 34.79645 23.69103 39108 ft 554 kts 144°
2026-05-03 20:51 34.73560 23.74968 39130 ft 554 kts 144°
2026-05-03 20:51 34.67514 23.80785 39111 ft 554 kts 145°
2026-05-03 20:52 34.61503 23.86558 39107 ft 554 kts 145°
2026-05-03 20:52 34.55452 23.92357 39096 ft 554 kts 145°
2026-05-03 20:53 34.49402 23.98144 39100 ft 553 kts 145°
2026-05-03 20:53 34.43361 24.03912 39103 ft 553 kts 145°
2026-05-03 20:54 34.37311 24.09678 39108 ft 553 kts 145°
2026-05-03 20:54 34.28234 24.18307 39098 ft 553 kts 145°
2026-05-03 20:55 34.22186 24.24042 39092 ft 552 kts 146°
2026-05-03 20:55 34.16158 24.29755 39101 ft 549 kts 146°
2026-05-03 20:56 34.10145 24.35436 39097 ft 549 kts 146°
2026-05-03 20:56 34.04125 24.41111 39106 ft 549 kts 146°
2026-05-03 20:57 33.98116 24.46799 39097 ft 550 kts 144°
2026-05-03 20:57 33.92361 24.52920 39095 ft 552 kts 142°
2026-05-03 20:58 33.86714 24.59185 39098 ft 552 kts 142°
2026-05-03 20:58 33.81031 24.65387 39090 ft 552 kts 142°
2026-05-03 20:59 33.75342 24.71500 39096 ft 552 kts 143°
2026-05-03 20:59 33.69613 24.77618 39093 ft 551 kts 143°
2026-05-03 21:00 33.65775 24.81709 39094 ft 552 kts 143°
2026-05-03 21:00 33.59065 24.88855 39097 ft 552 kts 143°
2026-05-03 21:01 33.53313 24.94972 39095 ft 552 kts 143°
2026-05-03 21:01 33.47561 25.01078 39102 ft 552 kts 143°
2026-05-03 21:02 33.41809 25.07172 39096 ft 552 kts 143°
2026-05-03 21:02 33.36047 25.13266 39099 ft 552 kts 143°
2026-05-03 21:03 33.30285 25.19348 39090 ft 553 kts 143°
2026-05-03 21:03 33.24558 25.25382 39095 ft 553 kts 143°
2026-05-03 21:04 33.18789 25.31449 39098 ft 552 kts 143°
2026-05-03 21:04 33.13018 25.37508 39099 ft 552 kts 144°
2026-05-03 21:05 33.07244 25.43559 39095 ft 552 kts 144°
2026-05-03 21:05 33.01467 25.49602 39063 ft 552 kts 144°
2026-05-03 21:06 32.95691 25.55632 39094 ft 553 kts 144°
2026-05-03 21:06 32.89902 25.61665 39094 ft 553 kts 144°
2026-05-03 21:07 32.84113 25.67689 39094 ft 551 kts 144°
2026-05-03 21:07 32.78367 25.73660 39095 ft 547 kts 144°
2026-05-03 21:08 32.72632 25.79604 39094 ft 547 kts 144°
2026-05-03 21:08 32.66902 25.85531 39085 ft 546 kts 145°
2026-05-03 21:09 32.61182 25.91441 39094 ft 544 kts 145°
2026-05-03 21:09 32.55465 25.97335 39088 ft 544 kts 146°
2026-05-03 21:10 32.49740 26.03226 39095 ft 546 kts 146°
2026-05-03 21:10 32.44001 26.09122 39104 ft 546 kts 146°
2026-05-03 21:11 32.38264 26.15008 39089 ft 546 kts 146°
2026-05-03 21:11 32.32508 26.20900 39105 ft 549 kts 146°
2026-05-03 21:12 32.26760 26.26774 39096 ft 550 kts 146°
2026-05-03 21:12 32.20930 26.32723 39108 ft 550 kts 146°
2026-05-03 21:13 32.15174 26.38588 39105 ft 550 kts 146°
2026-05-03 21:13 32.09378 26.44481 39110 ft 550 kts 146°
2026-05-03 21:14 32.03577 26.50370 39106 ft 551 kts 146°
2026-05-03 21:14 31.97767 26.56257 39113 ft 551 kts 146°
2026-05-03 21:15 31.91950 26.62142 39110 ft 551 kts 147°
2026-05-03 21:15 31.86138 26.68012 39116 ft 550 kts 147°
2026-05-03 21:16 31.80323 26.73874 39113 ft 550 kts 147°
2026-05-03 21:16 31.74503 26.79730 39089 ft 550 kts 147°
2026-05-03 21:17 31.69662 26.84594 39112 ft 551 kts 147°
2026-05-03 21:17 31.62848 26.91428 39117 ft 551 kts 147°
2026-05-03 21:18 31.57017 26.97267 39123 ft 550 kts 147°
2026-05-03 21:18 31.51189 27.03091 39124 ft 550 kts 147°
2026-05-03 21:19 31.45356 27.08910 39129 ft 550 kts 147°
2026-05-03 21:19 31.39525 27.14718 39119 ft 550 kts 147°
2026-05-03 21:20 31.33723 27.20570 39126 ft 554 kts 143°
2026-05-03 21:20 31.31132 27.23942 39131 ft 562 kts 132°
2026-05-03 21:20 31.28807 27.27625 39129 ft 563 kts 130°
2026-05-03 21:21 31.24360 27.35200 39129 ft 566 kts 129°
2026-05-03 21:21 31.19990 27.42843 39132 ft 566 kts 129°
2026-05-03 21:22 31.15598 27.50471 39127 ft 565 kts 129°
2026-05-03 21:22 31.11188 27.58042 39129 ft 563 kts 130°
2026-05-03 21:23 31.06718 27.65528 39127 ft 562 kts 130°
2026-05-03 21:23 31.02237 27.72985 39123 ft 560 kts 130°
2026-05-03 21:24 30.97816 27.80355 39130 ft 558 kts 130°
2026-05-03 21:24 30.93372 27.87761 39127 ft 558 kts 130°
2026-05-03 21:25 30.88928 27.95159 39129 ft 557 kts 130°
2026-05-03 21:25 30.84479 28.02550 39129 ft 557 kts 130°
2026-05-03 21:26 30.80025 28.09936 39122 ft 557 kts 131°
2026-05-03 21:26 30.75579 28.17298 39139 ft 556 kts 131°
2026-05-03 21:27 30.71130 28.24646 39123 ft 556 kts 131°
2026-05-03 21:27 30.66677 28.31989 39138 ft 556 kts 131°
2026-05-03 21:28 30.62226 28.39316 39107 ft 555 kts 132°
2026-05-03 21:28 30.57776 28.46629 39124 ft 554 kts 132°
2026-05-03 21:29 30.53329 28.53920 39128 ft 554 kts 132°
2026-05-03 21:29 30.48874 28.61212 39123 ft 554 kts 132°
2026-05-03 21:30 30.44421 28.68489 39112 ft 554 kts 132°
2026-05-03 21:30 30.39961 28.75763 39133 ft 553 kts 132°
2026-05-03 21:31 30.35498 28.83030 39128 ft 553 kts 132°
2026-05-03 21:31 30.31034 28.90284 39121 ft 553 kts 132°
2026-05-03 21:32 30.26565 28.97534 39116 ft 553 kts 133°
2026-05-03 21:32 30.22105 29.04757 39081 ft 552 kts 133°
2026-05-03 21:33 30.17643 29.11972 39110 ft 551 kts 133°
2026-05-03 21:33 30.13195 29.19179 39108 ft 551 kts 133°
2026-05-03 21:34 30.08804 29.26377 39094 ft 552 kts 132°
2026-05-03 21:34 30.04435 29.33646 39102 ft 550 kts 132°
2026-05-03 21:35 30.00066 29.40896 39099 ft 550 kts 132°
2026-05-03 21:35 29.95662 29.48169 39094 ft 550 kts 132°
2026-05-03 21:36 29.91307 29.55340 39083 ft 549 kts 133°
2026-05-03 21:36 29.86923 29.62547 39092 ft 548 kts 133°
2026-05-03 21:37 29.82542 29.69736 39093 ft 548 kts 133°
2026-05-03 21:37 29.78163 29.76908 39088 ft 548 kts 133°
2026-05-03 21:38 29.73779 29.84076 39083 ft 548 kts 133°
2026-05-03 21:38 29.69395 29.91233 39080 ft 547 kts 133°
2026-05-03 21:39 29.65004 29.98388 39084 ft 547 kts 133°
2026-05-03 21:39 29.60607 30.05540 39083 ft 547 kts 133°
2026-05-03 21:40 29.56210 30.12680 39071 ft 547 kts 133°
2026-05-03 21:40 29.51815 30.19806 39080 ft 546 kts 133°
2026-05-03 21:41 29.47417 30.26922 39079 ft 546 kts 133°
2026-05-03 21:41 29.43021 30.34024 39078 ft 546 kts 133°
2026-05-03 21:42 29.38413 30.40797 39062 ft 536 kts 141°
2026-05-03 21:42 29.33357 30.47009 39076 ft 531 kts 143°
2026-05-03 21:43 29.28243 30.53091 39078 ft 529 kts 143°
2026-05-03 21:43 29.23124 30.59149 39083 ft 529 kts 143°
2026-05-03 21:44 29.18839 30.64230 39083 ft 529 kts 143°
2026-05-03 21:44 29.13758 30.70261 39084 ft 529 kts 143°
2026-05-03 21:45 29.08617 30.76359 39083 ft 529 kts 143°
2026-05-03 21:45 29.03537 30.82376 39054 ft 529 kts 143°
2026-05-03 21:46 28.98393 30.88459 39086 ft 528 kts 143°
2026-05-03 21:46 28.93294 30.94477 39087 ft 527 kts 143°
2026-05-03 21:47 28.88225 31.00451 39088 ft 527 kts 143°
2026-05-03 21:47 28.83125 31.06454 39091 ft 526 kts 143°
2026-05-03 21:48 28.78026 31.12445 39095 ft 526 kts 143°
2026-05-03 21:48 28.72917 31.18440 39097 ft 526 kts 143°
2026-05-03 21:49 28.67834 31.24441 39061 ft 528 kts 142°
2026-05-03 21:49 28.62897 31.30661 39102 ft 529 kts 141°
2026-05-03 21:50 28.58015 31.36910 39100 ft 528 kts 141°
2026-05-03 21:50 28.53110 31.43124 39100 ft 528 kts 142°
2026-05-03 21:51 28.48186 31.49310 39101 ft 527 kts 142°
2026-05-03 21:51 28.43256 31.55484 39095 ft 527 kts 142°
2026-05-03 21:52 28.38334 31.61639 39100 ft 526 kts 142°
2026-05-03 21:52 28.33413 31.67784 39095 ft 525 kts 142°
2026-05-03 21:53 28.28497 31.73915 39094 ft 525 kts 142°
2026-05-03 21:53 28.23581 31.80038 39076 ft 525 kts 142°
2026-05-03 21:54 28.18691 31.86118 39094 ft 525 kts 143°
2026-05-03 21:54 28.13770 31.92228 39091 ft 525 kts 143°
2026-05-03 21:55 28.08848 31.98332 39093 ft 525 kts 143°
2026-05-03 21:55 28.04008 32.04556 39106 ft 534 kts 136°
2026-05-03 21:56 28.00069 32.11810 39094 ft 545 kts 128°
2026-05-03 21:56 27.96424 32.19351 39088 ft 547 kts 127°
2026-05-03 21:57 27.92821 32.26930 39079 ft 547 kts 127°
2026-05-03 21:57 27.89200 32.34481 39049 ft 546 kts 128°
2026-05-03 21:58 27.85560 32.42012 39065 ft 545 kts 128°
2026-05-03 21:58 27.81921 32.49513 39063 ft 544 kts 128°
2026-05-03 21:59 27.78276 32.57010 39054 ft 544 kts 128°
2026-05-03 21:59 27.74635 32.64491 39037 ft 544 kts 128°
2026-05-03 22:00 27.70985 32.71974 39044 ft 544 kts 128°
2026-05-03 22:00 27.67330 32.79456 39033 ft 545 kts 128°
2026-05-03 22:01 27.63667 32.86943 39022 ft 545 kts 128°
2026-05-03 22:01 27.60004 32.94417 39012 ft 546 kts 128°
2026-05-03 22:02 27.56327 33.01902 39013 ft 546 kts 128°
2026-05-03 22:02 27.52644 33.09390 39005 ft 546 kts 128°
2026-05-03 22:03 27.48983 33.16824 38987 ft 546 kts 128°
2026-05-03 22:03 27.45298 33.24289 38993 ft 545 kts 128°
2026-05-03 22:04 27.41613 33.31742 38982 ft 545 kts 128°
2026-05-03 22:04 27.37922 33.39195 38974 ft 545 kts 128°
2026-05-03 22:05 27.34225 33.46653 38954 ft 545 kts 128°
2026-05-03 22:05 27.30525 33.54088 38969 ft 545 kts 128°
2026-05-03 22:06 27.26823 33.61518 38962 ft 545 kts 128°
2026-05-03 22:06 27.23116 33.68947 38953 ft 545 kts 128°
2026-05-03 22:07 27.19408 33.76369 38964 ft 544 kts 129°
2026-05-03 22:07 27.16167 33.84148 38964 ft 554 kts 121°
2026-05-03 22:08 27.13269 33.92182 38963 ft 556 kts 120°
2026-05-03 22:08 27.10425 34.00251 38955 ft 555 kts 120°
2026-05-03 22:09 27.07576 34.08301 38944 ft 554 kts 120°
2026-05-03 22:10 27.03281 34.20324 38931 ft 553 kts 120°
2026-05-03 22:10 27.00415 34.28325 38929 ft 552 kts 121°
2026-05-03 22:11 26.97544 34.36309 38930 ft 552 kts 121°
2026-05-03 22:11 26.94672 34.44273 38928 ft 551 kts 121°
2026-05-03 22:12 26.91793 34.52246 38925 ft 552 kts 121°
2026-05-03 22:12 26.88907 34.60222 38929 ft 552 kts 121°
2026-05-03 22:13 26.86019 34.68192 38927 ft 552 kts 121°
2026-05-03 22:13 26.83131 34.76148 38921 ft 552 kts 121°
2026-05-03 22:14 26.80232 34.84113 38925 ft 552 kts 121°
2026-05-03 22:14 26.77328 34.92076 38925 ft 553 kts 121°
2026-05-03 22:15 26.74424 35.00033 38897 ft 552 kts 121°
2026-05-03 22:15 26.71518 35.07979 38925 ft 551 kts 121°
2026-05-03 22:16 26.68613 35.15906 38920 ft 550 kts 121°
2026-05-03 22:16 26.65708 35.23814 38934 ft 550 kts 121°
2026-05-03 22:17 26.62822 35.31658 38920 ft 548 kts 121°
2026-05-03 22:17 26.59921 35.39528 38921 ft 547 kts 121°
2026-05-03 22:18 26.57023 35.47369 38919 ft 546 kts 121°
2026-05-03 22:18 26.54087 35.55197 38914 ft 545 kts 122°
2026-05-03 22:19 26.51110 35.62956 38908 ft 543 kts 122°
2026-05-03 22:19 26.48128 35.70706 38905 ft 543 kts 122°
2026-05-03 22:20 26.45152 35.78458 38861 ft 543 kts 122°
2026-05-03 22:20 26.42183 35.86192 38901 ft 542 kts 122°
2026-05-03 22:21 26.39215 35.93910 38905 ft 541 kts 122°
2026-05-03 22:21 26.36243 36.01621 38897 ft 541 kts 122°
2026-05-03 22:22 26.33264 36.09333 38895 ft 541 kts 122°
2026-05-03 22:22 26.30285 36.17034 38892 ft 541 kts 122°
2026-05-03 22:23 26.27302 36.24729 38883 ft 541 kts 122°
2026-05-03 22:23 26.24315 36.32422 38885 ft 541 kts 122°
2026-05-03 22:24 26.21322 36.40114 38887 ft 541 kts 122°
2026-05-03 22:24 26.18308 36.47777 38870 ft 537 kts 125°
2026-05-03 22:25 26.14859 36.55100 38883 ft 533 kts 128°
2026-05-03 22:25 26.11304 36.62334 38885 ft 532 kts 128°
2026-05-03 22:26 26.07728 36.69549 38885 ft 532 kts 128°
2026-05-03 22:26 26.04158 36.76755 38870 ft 532 kts 128°
2026-05-03 22:27 26.00590 36.83961 38885 ft 532 kts 128°
2026-05-03 22:27 25.97623 36.89952 38889 ft 532 kts 128°
2026-05-03 22:28 25.94050 36.97153 38891 ft 532 kts 128°
2026-05-03 22:28 25.90473 37.04349 38889 ft 532 kts 128°
2026-05-03 22:29 25.86895 37.11537 38895 ft 531 kts 128°
2026-05-03 22:29 25.83318 37.18710 38891 ft 531 kts 128°
2026-05-03 22:30 25.79739 37.25890 38888 ft 533 kts 127°
2026-05-03 22:30 25.76812 37.33554 38908 ft 544 kts 118°
2026-05-03 22:31 25.74356 37.41517 38913 ft 547 kts 116°
2026-05-03 22:31 25.71993 37.49525 38920 ft 546 kts 116°
2026-05-03 22:32 25.69618 37.57476 38941 ft 547 kts 116°
2026-05-03 22:32 25.67181 37.65526 38934 ft 547 kts 116°
2026-05-03 22:33 25.64760 37.73473 38932 ft 547 kts 116°
2026-05-03 22:33 25.62314 37.81479 38940 ft 549 kts 116°
2026-05-03 22:34 25.59862 37.89492 38927 ft 549 kts 117°
2026-05-03 22:34 25.57406 37.97510 38923 ft 549 kts 116°
2026-05-03 22:35 25.54943 38.05526 38950 ft 551 kts 116°
2026-05-03 22:35 25.53705 38.09547 39097 ft 551 kts 116°
2026-05-03 22:35 25.52467 38.13568 39267 ft 551 kts 116°
2026-05-03 22:35 25.51233 38.17572 39466 ft 550 kts 116°
2026-05-03 22:36 25.49997 38.21581 39633 ft 549 kts 116°
2026-05-03 22:36 25.48765 38.25570 39824 ft 548 kts 116°
2026-05-03 22:36 25.47529 38.29564 39980 ft 548 kts 116°
2026-05-03 22:36 25.46296 38.33545 40121 ft 547 kts 116°
2026-05-03 22:37 25.45060 38.37528 40286 ft 547 kts 116°
2026-05-03 22:37 25.43826 38.41506 40447 ft 546 kts 116°
2026-05-03 22:37 25.42593 38.45473 40584 ft 546 kts 116°
2026-05-03 22:37 25.41358 38.49443 40733 ft 545 kts 116°
2026-05-03 22:38 25.40126 38.53401 40867 ft 545 kts 116°
2026-05-03 22:38 25.37650 38.61336 40945 ft 545 kts 116°
2026-05-03 22:39 25.35174 38.69255 40955 ft 545 kts 116°
2026-05-03 22:39 25.32699 38.77161 40966 ft 544 kts 116°
2026-05-03 22:40 25.30237 38.85005 40974 ft 544 kts 116°
2026-05-03 22:40 25.27756 38.92894 40967 ft 543 kts 116°
2026-05-03 22:41 25.25277 39.00763 40982 ft 541 kts 116°
2026-05-03 22:41 25.22795 39.08617 40999 ft 542 kts 116°
2026-05-03 22:42 25.20290 39.16526 41005 ft 542 kts 116°
2026-05-03 22:42 25.17818 39.24325 41017 ft 541 kts 116°
2026-05-03 22:43 25.15330 39.32156 41018 ft 541 kts 116°
2026-05-03 22:43 25.12819 39.40038 41028 ft 541 kts 116°
2026-05-03 22:44 25.10323 39.47859 41028 ft 540 kts 116°
2026-05-03 22:44 25.07821 39.55683 41032 ft 540 kts 116°
2026-05-03 22:45 25.05319 39.63495 41034 ft 540 kts 116°
2026-05-03 22:45 25.02828 39.71248 41036 ft 540 kts 116°
2026-05-03 22:46 25.00315 39.79058 41039 ft 540 kts 116°
2026-05-03 22:46 24.97800 39.86862 41040 ft 539 kts 116°
2026-05-03 22:47 24.95288 39.94641 41036 ft 539 kts 116°
2026-05-03 22:47 24.92772 40.02414 41036 ft 539 kts 116°
2026-05-03 22:48 24.90254 40.10177 41033 ft 538 kts 116°
2026-05-03 22:48 24.87734 40.17932 41028 ft 537 kts 116°
2026-05-03 22:49 24.85213 40.25673 41013 ft 537 kts 116°
2026-05-03 22:49 24.82690 40.33404 41014 ft 536 kts 116°
2026-05-03 22:50 24.80162 40.41136 41013 ft 536 kts 116°
2026-05-03 22:50 24.77635 40.48852 41012 ft 536 kts 116°
2026-05-03 22:51 24.75106 40.56557 41025 ft 535 kts 116°
2026-05-03 22:51 24.72574 40.64256 41024 ft 535 kts 116°
2026-05-03 22:52 24.70041 40.71942 41023 ft 535 kts 116°
2026-05-03 22:52 24.67504 40.79626 41017 ft 535 kts 116°
2026-05-03 22:53 24.64960 40.87314 41021 ft 535 kts 116°
2026-05-03 22:53 24.62416 40.94991 41023 ft 534 kts 116°
2026-05-03 22:54 24.59870 41.02658 41029 ft 534 kts 116°
2026-05-03 22:54 24.57323 41.10311 41028 ft 534 kts 116°
2026-05-03 22:55 24.54768 41.17975 41024 ft 533 kts 116°
2026-05-03 22:55 24.52215 41.25619 41028 ft 533 kts 116°
2026-05-03 22:56 24.49661 41.33253 41032 ft 533 kts 116°
2026-05-03 22:56 24.47102 41.40882 41032 ft 532 kts 116°
2026-05-03 22:57 24.44542 41.48505 41032 ft 532 kts 116°
2026-05-03 22:57 24.41973 41.56136 41031 ft 532 kts 116°
2026-05-03 22:58 24.39403 41.63759 41029 ft 532 kts 116°
2026-05-03 22:58 24.36834 41.71364 41030 ft 532 kts 116°
2026-05-03 22:59 24.34261 41.78965 41032 ft 532 kts 116°
2026-05-03 22:59 24.31772 41.86599 41027 ft 533 kts 112°
2026-05-03 23:00 24.29749 41.94445 41031 ft 535 kts 110°
2026-05-03 23:00 24.27821 42.02267 41029 ft 535 kts 110°
2026-05-03 23:01 24.25814 42.10095 41022 ft 533 kts 111°
2026-05-03 23:01 24.23761 42.17893 41024 ft 533 kts 111°
2026-05-03 23:02 24.21693 42.25676 41025 ft 532 kts 111°
2026-05-03 23:02 24.19621 42.33465 41026 ft 532 kts 111°
2026-05-03 23:03 24.17553 42.41235 41014 ft 532 kts 111°
2026-05-03 23:03 24.15482 42.49000 41029 ft 531 kts 111°
2026-05-03 23:04 24.13408 42.56762 41032 ft 531 kts 111°
2026-05-03 23:04 24.11332 42.64509 41024 ft 530 kts 111°
2026-05-03 23:05 24.09256 42.72244 41031 ft 529 kts 111°
2026-05-03 23:05 24.07177 42.79975 41034 ft 529 kts 111°
2026-05-03 23:06 24.05096 42.87690 41039 ft 529 kts 111°
2026-05-03 23:06 24.03009 42.95415 41038 ft 529 kts 111°
2026-05-03 23:07 24.00919 43.03126 41028 ft 529 kts 111°
2026-05-03 23:07 23.98828 43.10827 41038 ft 527 kts 111°
2026-05-03 23:08 23.96737 43.18514 41034 ft 527 kts 111°
2026-05-03 23:08 23.94644 43.26188 41034 ft 527 kts 111°
2026-05-03 23:09 23.92564 43.33804 41032 ft 526 kts 111°
2026-05-03 23:09 23.90467 43.41463 41040 ft 526 kts 111°
2026-05-03 23:10 23.88366 43.49116 41033 ft 525 kts 111°
2026-05-03 23:10 23.86265 43.56758 41022 ft 525 kts 111°
2026-05-03 23:11 23.84158 43.64401 41029 ft 525 kts 111°
2026-05-03 23:11 23.82051 43.72032 41023 ft 524 kts 111°
2026-05-03 23:12 23.80285 43.78414 41013 ft 524 kts 111°
2026-05-03 23:12 23.78182 43.86040 40999 ft 525 kts 109°
2026-05-03 23:13 23.77009 43.93959 41001 ft 530 kts 99°
2026-05-03 23:13 23.76361 44.01983 40994 ft 531 kts 97°
2026-05-03 23:14 23.75799 44.09967 40990 ft 531 kts 97°
2026-05-03 23:14 23.75221 44.17996 40993 ft 531 kts 97°
2026-05-03 23:15 23.74619 44.26047 41001 ft 532 kts 98°
2026-05-03 23:15 23.74006 44.34098 40985 ft 532 kts 98°
2026-05-03 23:16 23.73389 44.42142 40989 ft 532 kts 98°
2026-05-03 23:16 23.72769 44.50179 40998 ft 531 kts 98°
2026-05-03 23:17 23.72146 44.58200 41000 ft 530 kts 98°
2026-05-03 23:17 23.71519 44.66225 40995 ft 530 kts 98°
2026-05-03 23:18 23.70889 44.74236 40994 ft 529 kts 98°
2026-05-03 23:18 23.70255 44.82241 40999 ft 529 kts 98°
2026-05-03 23:19 23.69619 44.90239 40994 ft 529 kts 98°
2026-05-03 23:19 23.68979 44.98243 40996 ft 530 kts 98°
2026-05-03 23:20 23.68328 45.06252 40985 ft 530 kts 98°
2026-05-03 23:20 23.67677 45.14250 40980 ft 529 kts 98°
2026-05-03 23:21 23.67027 45.22195 40984 ft 529 kts 98°
2026-05-03 23:21 23.66373 45.30178 40982 ft 529 kts 98°
2026-05-03 23:22 23.65374 45.42176 40975 ft 529 kts 98°
2026-05-03 23:22 23.64704 45.50167 40970 ft 530 kts 98°
2026-05-03 23:23 23.64029 45.58180 40963 ft 530 kts 98°
2026-05-03 23:23 23.63356 45.66167 40962 ft 528 kts 98°
2026-05-03 23:24 23.62677 45.74146 40961 ft 528 kts 98°
2026-05-03 23:24 23.61989 45.82121 40959 ft 528 kts 98°
2026-05-03 23:25 23.61300 45.90087 40958 ft 528 kts 98°
2026-05-03 23:25 23.60607 45.98055 40959 ft 527 kts 98°
2026-05-03 23:26 23.59912 46.06016 40956 ft 528 kts 98°
2026-05-03 23:26 23.59211 46.13985 40962 ft 528 kts 98°
2026-05-03 23:27 23.58507 46.21949 40961 ft 528 kts 98°
2026-05-03 23:27 23.57799 46.29915 40969 ft 528 kts 98°
2026-05-03 23:28 23.57085 46.37884 40972 ft 528 kts 98°
2026-05-03 23:28 23.56367 46.45855 40974 ft 528 kts 98°
2026-05-03 23:29 23.55647 46.53823 40975 ft 528 kts 98°
2026-05-03 23:29 23.54923 46.61783 40968 ft 528 kts 98°
2026-05-03 23:30 23.54196 46.69727 40967 ft 526 kts 98°
2026-05-03 23:30 23.53465 46.77663 40963 ft 526 kts 98°
2026-05-03 23:31 23.52729 46.85595 40954 ft 526 kts 98°
2026-05-03 23:31 23.51991 46.93518 40956 ft 526 kts 98°
2026-05-03 23:32 23.51254 47.01393 40947 ft 526 kts 98°
2026-05-03 23:32 23.50506 47.09333 40935 ft 526 kts 98°
2026-05-03 23:33 23.49756 47.17263 40927 ft 526 kts 98°
2026-05-03 23:33 23.49003 47.25170 40927 ft 525 kts 98°
2026-05-03 23:34 23.48247 47.33075 40920 ft 525 kts 98°
2026-05-03 23:34 23.47486 47.40980 40915 ft 525 kts 98°
2026-05-03 23:35 23.46722 47.48881 40910 ft 525 kts 98°
2026-05-03 23:35 23.45956 47.56793 40908 ft 524 kts 98°
2026-05-03 23:36 23.45185 47.64684 40902 ft 525 kts 98°
2026-05-03 23:36 23.44406 47.72588 40897 ft 524 kts 98°
2026-05-03 23:37 23.43627 47.80470 40889 ft 523 kts 98°
2026-05-03 23:37 23.42846 47.88343 40897 ft 523 kts 98°
2026-05-03 23:38 23.42061 47.96211 40882 ft 523 kts 98°
2026-05-03 23:38 23.41271 48.04083 40878 ft 523 kts 98°
2026-05-03 23:39 23.40477 48.11964 40878 ft 523 kts 98°
2026-05-03 23:39 23.39679 48.19846 40873 ft 524 kts 98°
2026-05-03 23:40 23.38877 48.27721 40864 ft 523 kts 98°
2026-05-03 23:40 23.38077 48.35584 40865 ft 523 kts 97°
2026-05-03 23:41 23.37657 48.43488 40867 ft 524 kts 93°
2026-05-03 23:41 23.37452 48.51414 40858 ft 524 kts 93°
2026-05-03 23:42 23.37199 48.59336 40859 ft 524 kts 94°
2026-05-03 23:42 23.36888 48.67258 40861 ft 524 kts 94°
2026-05-03 23:43 23.36553 48.75166 40858 ft 524 kts 94°
2026-05-03 23:43 23.36214 48.83084 40854 ft 523 kts 94°
2026-05-03 23:44 23.35873 48.90994 40853 ft 523 kts 94°
2026-05-03 23:44 23.35530 48.98900 40853 ft 523 kts 94°
2026-05-03 23:45 23.35380 49.06800 40855 ft 524 kts 86°
2026-05-03 23:45 23.36164 49.14677 40853 ft 523 kts 83°
2026-05-03 23:46 23.37123 49.22530 40851 ft 524 kts 83°
2026-05-03 23:46 23.38106 49.30379 40848 ft 524 kts 83°
2026-05-03 23:47 23.39071 49.38236 40848 ft 524 kts 83°
2026-05-03 23:47 23.40022 49.46099 40848 ft 524 kts 83°
2026-05-03 23:48 23.40966 49.53961 40846 ft 524 kts 83°
2026-05-03 23:48 23.41907 49.61828 40848 ft 524 kts 83°
2026-05-03 23:49 23.42843 49.69687 40848 ft 524 kts 83°
2026-05-03 23:49 23.43771 49.77510 40847 ft 524 kts 83°
2026-05-03 23:50 23.44549 49.84095 40840 ft 523 kts 83°
2026-05-03 23:50 23.45624 49.93232 40840 ft 523 kts 83°
2026-05-03 23:51 23.46544 50.01093 40834 ft 523 kts 83°
2026-05-03 23:51 23.47460 50.08948 40840 ft 522 kts 83°
2026-05-03 23:52 23.48370 50.16789 40842 ft 522 kts 83°
2026-05-03 23:52 23.49276 50.24631 40840 ft 522 kts 83°
2026-05-03 23:53 23.50177 50.32468 40840 ft 521 kts 83°
2026-05-03 23:53 23.51075 50.40309 40837 ft 521 kts 83°
2026-05-03 23:54 23.51968 50.48147 40837 ft 521 kts 83°
2026-05-03 23:54 23.52709 50.54669 40837 ft 521 kts 83°
2026-05-03 23:55 23.53600 50.62549 40834 ft 521 kts 83°
2026-05-03 23:55 23.54476 50.70340 40832 ft 521 kts 83°
2026-05-03 23:56 23.55359 50.78224 40831 ft 521 kts 83°
2026-05-03 23:56 23.56227 50.86008 40831 ft 521 kts 83°
2026-05-03 23:57 23.57103 50.93900 40829 ft 521 kts 83°
2026-05-03 23:57 23.57970 51.01746 40826 ft 521 kts 83°
2026-05-03 23:58 23.58832 51.09594 40823 ft 521 kts 83°
2026-05-03 23:58 23.59691 51.17443 40826 ft 521 kts 83°
2026-05-03 23:59 23.60547 51.25298 40826 ft 521 kts 83°
2026-05-03 23:59 23.61397 51.33144 40820 ft 521 kts 83°
2026-05-04 00:00 23.62244 51.40991 40826 ft 521 kts 83°
2026-05-04 00:00 23.63086 51.48838 40823 ft 521 kts 83°
2026-05-04 00:01 23.63924 51.56685 40820 ft 521 kts 83°
2026-05-04 00:01 23.64753 51.64484 40818 ft 521 kts 83°
2026-05-04 00:02 23.65584 51.72332 40818 ft 521 kts 83°
2026-05-04 00:02 23.66411 51.80190 40818 ft 521 kts 83°
2026-05-04 00:03 23.67234 51.88047 40820 ft 522 kts 83°
2026-05-04 00:03 23.68056 51.95923 40815 ft 522 kts 83°
2026-05-04 00:04 23.68871 52.03786 40815 ft 522 kts 83°
2026-05-04 00:04 23.69684 52.11661 40815 ft 522 kts 83°
2026-05-04 00:05 23.70494 52.19545 40818 ft 522 kts 83°
2026-05-04 00:05 23.71298 52.27415 40818 ft 522 kts 83°
2026-05-04 00:06 23.72098 52.35287 40812 ft 522 kts 83°
2026-05-04 00:06 23.72895 52.43163 40809 ft 522 kts 83°
2026-05-04 00:07 23.73688 52.51043 40810 ft 522 kts 83°
2026-05-04 00:07 23.74476 52.58921 40810 ft 523 kts 83°
2026-05-04 00:08 23.75263 52.66818 40812 ft 523 kts 83°
2026-05-04 00:08 23.76045 52.74711 40809 ft 522 kts 83°
2026-05-04 00:09 23.76820 52.82580 40810 ft 521 kts 83°
2026-05-04 00:09 23.77592 52.90455 40807 ft 522 kts 83°
2026-05-04 00:10 23.78360 52.98328 40807 ft 522 kts 83°
2026-05-04 00:10 23.79119 53.06155 40804 ft 522 kts 83°
2026-05-04 00:11 23.79879 53.14027 40804 ft 522 kts 83°
2026-05-04 00:11 23.80636 53.21916 40801 ft 522 kts 83°
2026-05-04 00:12 23.81388 53.29795 40799 ft 522 kts 83°
2026-05-04 00:12 23.82136 53.37678 40799 ft 522 kts 83°
2026-05-04 00:13 23.82880 53.45560 40796 ft 522 kts 83°
2026-05-04 00:13 23.83620 53.53445 40796 ft 522 kts 83°
2026-05-04 00:14 23.84356 53.61331 40793 ft 522 kts 84°
2026-05-04 00:14 23.85089 53.69220 40793 ft 522 kts 84°
2026-05-04 00:15 23.85817 53.77110 40793 ft 522 kts 83°
2026-05-04 00:15 23.86542 53.85009 40793 ft 522 kts 84°
2026-05-04 00:16 23.87263 53.92907 40790 ft 522 kts 84°
2026-05-04 00:16 23.87980 54.00807 40793 ft 522 kts 84°
2026-05-04 00:17 23.88693 54.08706 40785 ft 522 kts 84°
2026-05-04 00:17 23.89401 54.16599 40784 ft 522 kts 84°
2026-05-04 00:18 23.90104 54.24484 40785 ft 521 kts 84°
2026-05-04 00:18 23.90803 54.32361 40785 ft 521 kts 84°
2026-05-04 00:19 23.91498 54.40243 40787 ft 521 kts 84°
2026-05-04 00:19 23.92189 54.48122 40785 ft 521 kts 84°
2026-05-04 00:20 23.92876 54.56007 40782 ft 521 kts 84°
2026-05-04 00:20 23.93557 54.63878 40782 ft 520 kts 84°
2026-05-04 00:21 23.94235 54.71755 40782 ft 520 kts 84°
2026-05-04 00:21 23.94910 54.79634 40788 ft 521 kts 84°
2026-05-04 00:22 23.95575 54.87459 40790 ft 521 kts 84°
2026-05-04 00:22 23.96243 54.95355 40790 ft 521 kts 84°
2026-05-04 00:23 23.96905 55.03242 40795 ft 521 kts 84°
2026-05-04 00:23 23.97565 55.11141 40797 ft 521 kts 84°
2026-05-04 00:24 23.98221 55.19045 40804 ft 521 kts 84°
2026-05-04 00:24 23.98544 55.22966 40442 ft 516 kts 84°
2026-05-04 00:24 23.98867 55.26889 39670 ft 520 kts 84°
2026-05-04 00:25 23.99192 55.30837 38839 ft 524 kts 84°
2026-05-04 00:25 23.99519 55.34827 37940 ft 529 kts 84°
2026-05-04 00:25 23.99847 55.38849 36994 ft 534 kts 84°
2026-05-04 00:25 24.00178 55.42909 36073 ft 538 kts 84°
2026-05-04 00:26 24.00544 55.46996 35166 ft 541 kts 80°
2026-05-04 00:26 24.01013 55.49470 34606 ft 542 kts 72°
2026-05-04 00:26 24.02084 55.52590 33892 ft 542 kts 61°
2026-05-04 00:26 24.04129 55.56035 32848 ft 538 kts 45°
2026-05-04 00:27 24.06691 55.59003 31968 ft 535 kts 40°
2026-05-04 00:27 24.09396 55.61783 31190 ft 532 kts 38°
2026-05-04 00:27 24.12118 55.64434 30512 ft 528 kts 37°
2026-05-04 00:27 24.14847 55.67054 29594 ft 516 kts 36°
2026-05-04 00:28 24.17559 55.69666 28291 ft 509 kts 37°
2026-05-04 00:28 24.20181 55.72212 27077 ft 500 kts 37°
2026-05-04 00:28 24.22710 55.74694 26095 ft 488 kts 38°
2026-05-04 00:28 24.25203 55.77158 25548 ft 480 kts 38°
2026-05-04 00:29 24.27662 55.79597 25022 ft 474 kts 38°
2026-05-04 00:29 24.30093 55.82014 24475 ft 469 kts 38°
2026-05-04 00:29 24.32493 55.84402 23951 ft 463 kts 38°
2026-05-04 00:29 24.34866 55.86767 23417 ft 458 kts 38°
2026-05-04 00:30 24.37213 55.89106 22819 ft 453 kts 38°
2026-05-04 00:30 24.39526 55.91417 22228 ft 446 kts 39°
2026-05-04 00:30 24.41805 55.93691 21692 ft 440 kts 39°
2026-05-04 00:30 24.44054 55.95935 21140 ft 434 kts 39°
2026-05-04 00:31 24.46276 55.98151 20596 ft 428 kts 39°
2026-05-04 00:31 24.48467 56.00336 20050 ft 423 kts 39°
2026-05-04 00:31 24.50635 56.02499 19487 ft 418 kts 39°
2026-05-04 00:31 24.52776 56.04637 18956 ft 414 kts 39°
2026-05-04 00:32 24.54893 56.06756 18427 ft 410 kts 39°
2026-05-04 00:32 24.56986 56.08858 17849 ft 406 kts 39°
2026-05-04 00:32 24.59153 56.10794 17282 ft 397 kts 30°
2026-05-04 00:32 24.61585 56.12120 16760 ft 386 kts 15°
2026-05-04 00:33 24.64140 56.12929 16232 ft 379 kts 11°
2026-05-04 00:33 24.69245 56.13994 15242 ft 368 kts
2026-05-04 00:33 24.71763 56.14417 14756 ft 363 kts
2026-05-04 00:34 24.74244 56.14826 14265 ft 358 kts
2026-05-04 00:34 24.76697 56.15214 13788 ft 353 kts
2026-05-04 00:34 24.79091 56.15200 13261 ft 347 kts 351°
2026-05-04 00:34 24.81412 56.14587 12747 ft 341 kts 340°
2026-05-04 00:35 24.83627 56.13706 12253 ft 336 kts 336°
2026-05-04 00:35 24.85762 56.12707 11779 ft 331 kts 334°
2026-05-04 00:35 24.87852 56.11661 11309 ft 329 kts 333°
2026-05-04 00:35 24.89916 56.10604 10848 ft 326 kts 333°
2026-05-04 00:36 24.91942 56.09566 10665 ft 314 kts 333°
2026-05-04 00:36 24.93876 56.08587 10536 ft 299 kts 333°
2026-05-04 00:36 24.95660 56.07532 10409 ft 283 kts 323°
2026-05-04 00:36 24.97066 56.06112 10283 ft 268 kts 307°
2026-05-04 00:37 24.97979 56.04389 10171 ft 256 kts 292°
2026-05-04 00:37 24.98599 56.02575 9982 ft 254 kts 289°
2026-05-04 00:37 24.99174 56.00700 9888 ft 266 kts 288°
2026-05-04 00:37 24.99766 55.98734 9853 ft 272 kts 288°
2026-05-04 00:38 25.00354 55.96770 9433 ft 270 kts 288°
2026-05-04 00:38 25.00943 55.94795 8944 ft 271 kts 288°
2026-05-04 00:38 25.01331 55.93493 8702 ft 270 kts 288°
2026-05-04 00:38 25.02112 55.90871 8261 ft 268 kts 288°
2026-05-04 00:39 25.02497 55.89577 8056 ft 268 kts 288°
2026-05-04 00:39 25.03076 55.87631 7737 ft 266 kts 288°
2026-05-04 00:39 25.03652 55.85694 7416 ft 265 kts 288°
2026-05-04 00:39 25.04225 55.83765 7100 ft 264 kts 288°
2026-05-04 00:40 25.04796 55.81843 6772 ft 263 kts 288°
2026-05-04 00:40 25.05366 55.79922 6472 ft 263 kts 288°
2026-05-04 00:40 25.05925 55.78039 6284 ft 252 kts 288°
2026-05-04 00:40 25.06457 55.76244 6146 ft 240 kts 288°
2026-05-04 00:41 25.06963 55.74536 6022 ft 228 kts 288°
2026-05-04 00:41 25.07444 55.72910 5891 ft 218 kts 288°
2026-05-04 00:41 25.07905 55.71354 5761 ft 208 kts 288°
2026-05-04 00:41 25.08343 55.69873 5625 ft 198 kts 288°
2026-05-04 00:42 25.08761 55.68459 5508 ft 191 kts 288°
2026-05-04 00:42 25.09177 55.67055 5385 ft 194 kts 287°
2026-05-04 00:42 25.09589 55.65658 5249 ft 194 kts 287°
2026-05-04 00:42 25.10010 55.64244 5100 ft 194 kts 288°
2026-05-04 00:43 25.10580 55.62892 4979 ft 195 kts 298°
2026-05-04 00:43 25.11268 55.61624 4744 ft 192 kts 300°
2026-05-04 00:43 25.11973 55.60368 4424 ft 193 kts 300°
2026-05-04 00:43 25.12681 55.59108 4132 ft 193 kts 300°
2026-05-04 00:44 25.13385 55.57853 4037 ft 192 kts 300°
2026-05-04 00:44 25.14143 55.56639 3992 ft 190 kts 301°
2026-05-04 00:44 25.14833 55.55406 3696 ft 189 kts 300°
2026-05-04 00:44 25.15518 55.54157 3396 ft 189 kts 300°
2026-05-04 00:45 25.16190 55.52915 3108 ft 188 kts 299°
2026-05-04 00:45 25.16849 55.51693 2909 ft 181 kts 299°
2026-05-04 00:45 25.17466 55.50557 2756 ft 164 kts 299°
2026-05-04 00:45 25.18030 55.49523 2559 ft 152 kts 300°
2026-05-04 00:46 25.18572 55.48546 2265 ft 147 kts 300°
2026-05-04 00:46 25.19108 55.47597 1909 ft 146 kts 302°
2026-05-04 00:46 25.19629 55.46654 1629 ft 141 kts 299°
2026-05-04 00:46 25.20108 55.45740 1362 ft 135 kts 298°
2026-05-04 00:47 25.20581 55.44862 1131 ft 130 kts 300°
2026-05-04 00:47 25.21075 55.44003 980 ft 135 kts 301°
2026-05-04 00:47 25.21570 55.43115 803 ft 137 kts 300°
2026-05-04 00:47 25.22068 55.42215 663 ft 138 kts 301°
2026-05-04 00:48 25.22575 55.41308 453 ft 141 kts 300°
2026-05-04 00:48 25.23085 55.40384 265 ft 142 kts 300°
2026-05-04 00:48 25.23602 55.39452 96 ft 141 kts 299°
2026-05-04 00:48 25.24079 55.38587 31 ft 118 kts 302°
2026-05-04 00:49 25.24343 55.38127 32 ft 38 kts 302°
2026-05-04 00:49 25.24414 55.38003 31 ft 17 kts 301°
2026-05-04 00:49 25.24415 55.37895 30 ft 15 kts 233°
2026-05-04 00:49 25.24337 55.37829 28 ft 9 kts 215°
2026-05-04 00:50 25.24277 55.37785 28 ft 12 kts 211°
2026-05-04 00:50 25.24198 55.37732 27 ft 15 kts 211°
2026-05-04 00:50 25.24104 55.37668 27 ft 17 kts 211°
2026-05-04 00:50 25.24021 55.37612 27 ft 14 kts 212°
2026-05-04 00:51 25.23973 55.37536 27 ft 8 kts 255°
2026-05-04 00:51 25.23998 55.37499 27 ft 6 kts 345°
2026-05-04 00:51 25.24048 55.37490 27 ft 6 kts 353°
2026-05-04 00:51 25.24065 55.37489 27 ft 0 kts 354°